AirNav  
 
 1530 users online  

00IN St Mary Medical Center Heliport
Hobart, Indiana, USA

GOING TO HOBART?


FAA INFORMATION EFFECTIVE 29 MARCH 2018

Location

FAA Identifier: 00IN
Lat/Long: 41-30-41.0000N / 087-15-38.0000W
41-30.683333N / 087-15.633333W
41.5113889 / -87.2605556
(estimated)
Elevation: 634 ft. / 193 m (estimated)
Variation: 02W (1995)
From city: 2 miles SW of HOBART, IN
Time zone: UTC -5 (UTC -6 during Standard Time)
Zip code: 46342

Heliport Operations

Heliport use: Private use. Permission required prior to landing
Activation date: 03/2000
Control tower: no
ARTCC: CHICAGO CENTER
FSS: TERRE HAUTE FLIGHT SERVICE STATION
Attendance: UNATNDD
Wind indicator: lighted
Segmented circle: no
Lights: FOR PERIMETER LGTS CALL 219-942-0551.

Heliport Communications

WX AWOS-3PT at GYY (9 nm NW): 134.575 (219-944-0010)
WX ASOS at VPZ (12 nm E): 125.875 (219-531-1770)
WX AWOS-3 at IGQ (12 nm W): 119.275 (708-895-9526)

Nearby radio navigation aids

VOR radial/distance  VOR name  Freq  Var
CGTr088/14.0CHICAGO HEIGHTS VORTAC114.2002E
EONr057/27.9PEOTONE VORTAC113.2002E
OXIr292/29.8KNOX VOR/DME115.6000E
IKKr045/37.3KANKAKEE VOR/DME111.6000E

 
NDB name  Hdg/Dist  Freq  Var  ID
LA PORTE275/22.035603WIUL .. ..- .-..

Heliport Services

Runway Information

Helipad H1

Dimensions: 40 x 40 ft. / 12 x 12 m
Surface: mats
Runway edge lights: PERI
Operational restrictions: ROOFTOP HELIPAD.
Latitude: 41-30.683333N
Longitude: 087-15.633333W
Elevation: 634.0 ft.
Traffic pattern: leftleft

Heliport Ownership and Management from official FAA records

Ownership: Privately-owned
Owner: ST MARYS MEDICAL CENTER
1500 S LAKE PARK AVE
HOBART, IN 46342
Phone 219-942-0551
Manager: KEN VANDERHYE
ST MARY MEDICAL CENTER, 1500 S LAKE PARK AVE
HOBART, IN 46342
Phone 219-942-0551

Instrument Procedures

There are no published instrument procedures at 00IN.

Some nearby airports with instrument procedures:

3HO - Hobart Sky Ranch Airport (3 nm N)
05C - Griffith-Merrillville Airport (6 nm W)
KGYY - Gary/Chicago International Airport (9 nm NW)
KVPZ - Porter County Regional Airport (12 nm E)
KIGQ - Lansing Municipal Airport (12 nm W)
 
Loc | Ops | Rwys | IFR | FBO | Links
Com | Nav | Svcs | Stats | Notes

AirNav Hotels Sweepstakes
 
Area around 00IN (St Mary Medical Center Heliport)
 
Road maps at: MapQuest Bing Google
 
Aerial photo
No photo
 
Sectional chart

 
Airport distance calculator
Flying to St Mary Medical Center Heliport? Find the distance to fly.

From to 00IN

Sunrise and sunset
Times for 20-Apr-2018
 Local
(UTC-5)
 Zulu
(UTC)
Morning civil twilight05:3310:33
Sunrise06:0311:03
Sunset19:3300:33
Evening civil twilight20:0301:03

Current date and time
Zulu (UTC)  20-Apr-2018 16:56:20
Local (UTC-5)  20-Apr-2018 11:56:20
 
METAR
KGYY 
9nm NW 
201545Z VRB04KT 10SM SKC 11/M03 A3053
KVPZ 
12nm E 
201556Z AUTO 29003KT 10SM CLR 13/M07 A3053 RMK AO2 SLP342 T01281067
KIGQ 
12nm W 
201635Z AUTO 00000KT 10SM CLR 12/M02 A3052 RMK AO2 T01161016
TAF
KGYY 
9nm NW 
201501Z 2015/2112 VRB04KT P6SM SKC FM201800 04010KT P6SM FEW250 FM210100 06004KT P6SM BKN200
NOTAMs
Click for the latest NOTAMs
NOTAMs are issued by the DoD/FAA and will open in a separate window not controlled by AirNav.

 

 
 

Would you like to see your business listed on this page?

 If your business provides an interesting product or service to pilots, flight crews, aircraft, or users of the St Mary Medical Center Heliport, you should consider listing it here.  To start the listing process, click on the button below
 
Add a business
 

Other Pages about St Mary Medical Center Heliport

Update a link
 
Copyright © AirNav, LLC. All rights reserved. Privacy Policy  Contact